Regional Weather Roundup
Issued by NWS

Home | Current Version | Previous Version | Text Only | Print | Product List | Glossary On
Versions: 1 2 3 4 5 6 7 8 9 10 11 12 13 14 15 16 17 18 19 20 21 22 23 24 25 26 27 28 29 30 31 32 33 34 35 36 37 38 39 40 41 42 43 44 45 46 47 48 49 50
000
ASUS43 KMKX 300900
RWRWI

WISCONSIN REGIONAL WEATHER ROUNDUP
NATIONAL WEATHER SERVICE MILWAUKEE/SULLIVAN WI
400 AM CDT TUE SEP 30 2014

NOTE: "FAIR" INDICATES FEW OR NO CLOUDS BELOW 12,000 FEET WITH NO
SIGNIFICANT WEATHER AND/OR OBSTRUCTIONS TO VISIBILITY.

WIZ001-002-006>008-014>016-023>028-301000-
NORTHWEST WISCONSIN

CITY           SKY/WX    TMP DP  RH WIND       PRES   REMARKS
SUPERIOR ARPT  CLOUDY    43  39  86 SE7       30.17F
ASHLAND        CLOUDY    42  39  89 CALM      30.16F
HAYWARD        CLOUDY    41  38  89 NE3       30.15S
SIREN          CLOUDY    42  39  89 E7        30.14S
CUMBERLAND     CLOUDY    39  36  87 E9        30.13F WCI  33
RICE LAKE      CLOUDY    41  37  87 NE5       30.16S
CHETEK         CLOUDY    41  38  87 NE6       30.14F
LADYSMITH      CLOUDY    41  37  86 NE8       30.15F
EAU CLAIRE     NOT AVBL
MENOMONIE      CLOUDY    43  38  83 NE7       30.13F
NEW RICHMOND   CLOUDY    42  38  89 E8        30.13S
OSCEOLA        CLOUDY    42  40  94 E9        30.16S
$$

WIZ003>005-009-010-017-018-301000-
NORTH CENTRAL WISCONSIN

CITY           SKY/WX    TMP DP  RH WIND       PRES   REMARKS
MANITOWISH WTR CLOUDY    36  36 100 NE5       30.12F WCI  32
ARBOR VITAE    CLOUDY    39  37  91 NE5       30.13S
WOODRUFF       CLOUDY    39  37  91 NE5       30.13S
RHINELANDER    CLOUDY    38  36  92 NE5       30.13S WCI  34
EAGLE RIVER    FLURRIES  38  37  99 N5        30.12F WCI  34
LAND O LAKES   CLOUDY    38  37  97 NE3       30.13F FOG
PHILLIPS       CLOUDY    37  35  91 E7        30.12F WCI  32
TOMAHAWK       CLOUDY    38  35  89 NE6       30.13S WCI  33
MEDFORD        CLOUDY    38  35  90 E6        30.12F WCI  33
MERRILL        CLOUDY    39  37  91 NE6       30.12F WCI  35
$$

WIZ029-030-035-036-043>047-301000-
CENTRAL WISCONSIN

CITY           SKY/WX    TMP DP  RH WIND       PRES   REMARKS
WAUSAU         CLOUDY    40  36  86 NE6       30.12R
MOSINEE        CLOUDY    37  37 100 NE5       30.13S WCI  34
MARSHFIELD     CLOUDY    42  36  79 NE7       30.12S
STEVENS POINT  CLOUDY    38  35  86 NE6       30.13S WCI  34
WAUPACA        CLOUDY    43  39  85 N8        30.13R
WAUTOMA        NOT AVBL
WISC RAPIDS    CLOUDY    41  36  82 E9        30.14R
CAMP DOUGLAS   NOT AVBL
$$

WIZ011>013-019>022-031-037>040-048>050-301000-
NORTHEAST WISCONSIN

CITY           SKY/WX    TMP DP  RH WIND       PRES   REMARKS
ANTIGO         CLOUDY    38  37  93 N10       30.11S WCI  31
SHAWANO        CLOUDY    44  38  81 NE12      30.11F
OCONTO         CLOUDY    42  40  89 N7        30.10F
STURGEON BAY   NOT AVBL
GREEN BAY      CLOUDY    43  39  86 N10       30.09F
MANITOWOC      NOT AVBL
APPLETON       CLOUDY    41  37  87 N10       30.10F
CLINTONVILLE   CLOUDY    43  36  75 N7        30.11S
OSHKOSH        CLOUDY    44  39  82 N9        30.10R
$$

WIZ032>034-041-042-053>061-301000-
SOUTHWEST WISCONSIN

CITY           SKY/WX    TMP DP  RH WIND       PRES   REMARKS
LA CROSSE      CLOUDY    48  42  80 NE8       30.11S
SPARTA         CLOUDY    45  41  87 E6        30.11S
VIROQUA        CLOUDY    46  46 100 CALM      30.08S
BOSCOBEL       CLOUDY    52  45  77 NE6       30.09R
PRAIRIE DU CHI CLOUDY    52  46  78 NE6       30.07S
PLATTEVILLE    CLOUDY    50  47  90 NE9       30.07S
$$

WIZ056-057-062-063-064-067-068-301000-
SOUTH CENTRAL WISCONSIN

CITY           SKY/WX    TMP DP  RH WIND       PRES   REMARKS
REEDSBURG      CLOUDY    44  40  87 NE8       30.10S
BARABOO/DELLS  CLOUDY    44  40  86 E8        30.10S
LONE ROCK      CLOUDY    51  43  74 NE9       30.10R
MINERAL POINT  CLOUDY    48  45  87 NE8       30.07S
MADISON        CLOUDY    46  41  82 NE9       30.09S
MIDDLETON      CLOUDY    47  42  83 NE12      30.09S
WATERTOWN      CLOUDY    44  42  93 NE6       30.09R
MONROE         CLOUDY    46  45  93 NE12      30.06S
JANESVILLE     CLOUDY    50  43  76 NE6       30.07R
$$

WIZ051-052-058>065-066-070>072-301000-
SOUTHEAST WISCONSIN

CITY           SKY/WX    TMP DP  RH WIND       PRES   REMARKS
MILWAUKEE      CLOUDY    46  40  79 N8        30.08S
WAUKESHA       CLOUDY    43  37  81 N6        30.10R
MILWAUKEE/TIMM CLOUDY    45  37  76 N13       30.09S
RACINE         CLOUDY    46  43  89 N9        30.08S FOG
BURLINGTON     CLOUDY    45  41  86 NE8       30.08R
KENOSHA        CLOUDY    47  42  83 N9        30.07S
FOND DU LAC    CLOUDY    45  39  79 NE12      30.11R
SHEBOYGAN      CLOUDY    44  39  82 N10       30.08S
WEST BEND      CLOUDY    43  37  81 N9        30.09R
JUNEAU         CLOUDY    43  40  87 NE10      30.10R
$$

LSZ147-162-301000-
LAKE SUPERIOR

STATION/POSITION TIME  TEMP    WIND        PRES    WAVE
                       AIR SEA DIR/SP/G            HT/PER
                 (UTC) (F)     (DEG/KT/KT) (MB)    (FT/S)
W MID LAKE BUOY  0750   44 50   60/ 12/ 16 1022.1F   4/ 6
DEVILS ISLAND    0800   44      70/  9/ 11 1022.2F
SAXON HARBOR     0800   44      CALM  /  7 1021.3
$$

LMZ867-665-643>646-301000-
LAKE MICHIGAN

STATION/POSITION TIME  TEMP    WIND        PRES    WAVE
                       AIR SEA DIR/SP/G            HT/PER
                 (UTC) (F)     (DEG/KT/KT) (MB)    (FT/S)
CHAMBERS ISLAND  0800   46     340/ 21/ 27 1019.0F
S GREEN BAY BUOY 0830   46                 1019.9F
N MID LAKE BUOY  0750   47 58  360/ 19/ 25 1017.5F   5/ 5
NORTHPORT PIER   0800   46     350/ 16/ 21 1019.0R
KEWAUNEE LAKESHO 0800   44     340/  5/ 10 1017.8F
SHEBOYGAN LAKESH 0800   46 54  350/ 19/ 22 1019.0F
PORT WASHINGTON  0840          360/  7/ 13 1019.3S
ATWATER BUOY     0800   49     360/ 17/ 21 1019.1F
MILWAUKEE LAKESH 0800          340/  9/ 14   N/A
S MID LAKE BUOY  0750   52 62  350/ 17/ 21 1016.8R   7/ 7
KENOSHA   LAKESH 0800          350/ 20/ 23 1017.9R
$$

TC  - TEMPERATURE IN CELSIUS
VSB - VISIBILITY IN STATUTE MILES
WCI - WIND CHILL INDEX
HX  - HEAT INDEX




USA.gov is the U.S. government's official web portal to all federal, state and local government web resources and services.